Weather History for Sierra Vista, AZ

Change the Weather History Date:

Monday, August 5, 2013

  Actual Average Record
Temperature  
Mean Temperature 71 °F -  
Max Temperature 80 °F 87 °F 94 °F (1986)
Min Temperature 62 °F 68 °F 62 °F (1984)
Cooling Degree Days 6    
Growing Degree Days 21 (Base 50)    
Moisture  
Dew Point 58 °F    
Average Humidity 62    
Maximum Humidity 88    
Minimum Humidity 42    
Precipitation  
Precipitation 0.02 in - - ()
Sea Level Pressure  
Sea Level Pressure 30.13 in    
Wind  
Wind Speed 9 mph (SW)    
Max Wind Speed 38 mph    
Max Gust Speed 47 mph    
Visibility 9 miles    
Events Rain , Thunderstorm    
Averages and records for this station are not official NWS values.
T = Trace of Precipitation, MM = Missing Value Source: NWS Daily Summary

Daily Weather History Graph

Daily Weather History Graph

Search for Another Location

Airport:

Trip Planner

Search our weather history database for the weather conditions in past years. The results will help you decide how hot, cold, wet, or windy it might be!

Date:

Astronomy

Aug. 05, 2013 Rise Set
Actual Time 5:40 AM MST 7:13 PM MST
Civil Twilight 5:14 AM MST 7:40 PM MST
Nautical Twilight 4:42 AM MST 8:11 PM MST
Astronomical Twilight 4:09 AM MST 8:44 PM MST
Moon 4:37 AM MST (8/5) 6:18 PM MST (8/5)
Length of Visible Light 14h 26m
Length of Day
13h 33m
Waning Crescent, 1% of the Moon is Illuminated
Aug 5
Waning Crescent
Aug 6
New
Aug 14
First Quarter
Aug 20
Full
Aug 28
Last Quarter

Hourly Weather History & Observations

Time (MST) Temp. Heat Index Dew Point Humidity Pressure Visibility Wind Dir Wind Speed Gust Speed Precip Events Conditions
12:55 AM 77.0 °F - 53.6 °F 44% 29.94 in 10.0 mi SW 6.9 mph - N/A   Mostly Cloudy
1:55 AM 77.0 °F - 55.4 °F 47% 29.93 in 10.0 mi SW 5.8 mph - N/A   Mostly Cloudy
2:55 AM 75.2 °F - 53.6 °F 47% 29.94 in 10.0 mi SW 4.6 mph - N/A   Mostly Cloudy
3:17 AM 75.2 °F - 55.4 °F 50% 30.16 in 10.0 mi Variable 4.6 mph - N/A Thunderstorm Thunderstorm
3:35 AM 73.4 °F - 55.4 °F 53% 30.18 in 7.0 mi ESE 38.0 mph 47.2 mph N/A Rain , Thunderstorm Light Thunderstorms and Rain
3:55 AM 69.8 °F - 57.2 °F 64% 30.04 in 5.0 mi ESE 19.6 mph 34.5 mph N/A Rain , Thunderstorm Light Thunderstorms and Rain
4:55 AM 68.0 °F - 60.8 °F 78% 30.06 in 7.0 mi SSE 19.6 mph - N/A Rain , Thunderstorm Light Thunderstorms and Rain
5:37 AM 68.0 °F - 59.0 °F 73% 30.27 in 4.0 mi South 11.5 mph - N/A Rain Light Rain Showers
5:55 AM 69.8 °F - 59.0 °F 68% 30.27 in 4.0 mi SSE 12.7 mph - N/A Rain Light Rain Showers
6:55 AM 64.4 °F - 53.6 °F 68% 30.22 in 7.0 mi South 10.4 mph - N/A Rain Light Rain Showers
7:26 AM 62.6 °F - 59.0 °F 88% 30.21 in 10.0 mi WSW 10.4 mph - N/A   Overcast
7:55 AM 64.4 °F - 59.0 °F 83% 30.22 in 10.0 mi Calm Calm - N/A   Mostly Cloudy
8:55 AM 69.8 °F - 59.0 °F 68% 30.22 in 10.0 mi East 5.8 mph - N/A   Overcast
9:55 AM 71.6 °F - 60.8 °F 69% 30.22 in 10.0 mi ENE 3.5 mph - N/A   Mostly Cloudy
10:55 AM 75.2 °F - 57.2 °F 53% 30.21 in 10.0 mi ESE 6.9 mph - N/A   Mostly Cloudy
11:55 AM 75.2 °F - 55.4 °F 50% 30.20 in 10.0 mi NNW 3.5 mph - N/A   Mostly Cloudy
12:55 PM 78.8 °F - 55.4 °F 44% 30.19 in 10.0 mi Calm Calm - N/A   Mostly Cloudy
1:18 PM 78.8 °F - 55.4 °F 44% 30.19 in 10.0 mi Calm Calm - N/A Thunderstorm Mostly Cloudy
1:33 PM 77.0 °F - 55.4 °F 47% 30.18 in 10.0 mi Calm Calm - N/A   Mostly Cloudy
1:46 PM 77.0 °F - 57.2 °F 50% 30.18 in 10.0 mi West 5.8 mph - N/A Rain Light Rain Showers
1:55 PM 78.8 °F - 57.2 °F 47% 30.18 in 10.0 mi SW 10.4 mph - N/A Rain Light Rain Showers
2:55 PM 80.6 °F 80.8 °F 57.2 °F 45% 30.15 in 10.0 mi WNW 9.2 mph - N/A   Mostly Cloudy
3:55 PM 80.6 °F 80.5 °F 55.4 °F 42% 30.13 in 10.0 mi WNW 8.1 mph - N/A   Mostly Cloudy
4:28 PM 78.8 °F - 57.2 °F 47% 30.12 in 10.0 mi WNW 3.5 mph - N/A Thunderstorm Thunderstorm
4:56 PM 78.1 °F - 60.1 °F 54% 30.13 in 10.0 mi West 3.5 mph - 0.00 in Rain , Thunderstorm Light Thunderstorms and Rain
5:07 PM 75.2 °F - 60.8 °F 61% 30.12 in 10.0 mi West 16.1 mph 19.6 mph 0.01 in Rain Light Rain
5:15 PM 73.4 °F - 60.8 °F 65% 30.12 in 10.0 mi WSW 16.1 mph - 0.01 in Rain , Thunderstorm Light Thunderstorms and Rain
5:43 PM 73.4 °F - 57.2 °F 57% 30.12 in 10.0 mi WSW 13.8 mph - 0.01 in Rain Light Rain
5:56 PM 73.0 °F - 59.0 °F 61% 30.12 in 10.0 mi WSW 12.7 mph - 0.01 in Rain Light Rain
6:52 PM 73.4 °F - 57.2 °F 57% 30.12 in 10.0 mi WSW 10.4 mph - 0.00 in Thunderstorm Thunderstorm
6:56 PM 73.9 °F - 57.0 °F 55% 30.12 in 10.0 mi WSW 10.4 mph - 0.00 in Thunderstorm Thunderstorm
7:21 PM 73.4 °F - 59.0 °F 61% 30.14 in 10.0 mi SE 4.6 mph - N/A   Overcast
7:56 PM 71.1 °F - 63.0 °F 75% 30.02 in 10.0 mi ESE 11.5 mph - N/A   Overcast
8:56 PM 69.1 °F - 64.0 °F 84% 30.01 in 10.0 mi South 4.6 mph - 0.01 in Thunderstorm Thunderstorm
9:05 PM 69.8 °F - 64.4 °F 83% 30.17 in 10.0 mi Calm Calm - N/A   Overcast
9:56 PM 66.9 °F - 63.0 °F 87% 30.01 in 10.0 mi West 9.2 mph - N/A   Clear
10:55 PM 66.2 °F - 62.6 °F 88% 30.01 in 10.0 mi West 12.7 mph - N/A   Mostly Cloudy
11:55 PM 66.2 °F - 60.8 °F 83% 30.01 in 10.0 mi West 8.1 mph - N/A   Mostly Cloudy